• In Romania
  • List of Countries
  • For 7 days
  • Water Temperature
  • Satellite Maps
  • Weather Map
  • Weather Widgets
  • user-avatar
    Login

    Hourly Weather Ischgl

    Today, 22 February, Wednesday

    Time Temperature Precipitation Wind Pressure Humidity
    00:00 -7°C° 0.1 mm 1 mps 570 mmHg 98%
    01:00 -7°C° 0.1 mm 1 mps 570 mmHg 98%
    02:00 -8°C° 0 mm 1 mps 570 mmHg 98%
    03:00 -8°C° 0 mm 1 mps 569 mmHg 98%
    04:00 -8°C° 0 mm 1 mps 569 mmHg 98%
    05:00 -8°C° 0 mm 1 mps 569 mmHg 97%
    06:00 -8°C° 0 mm 1 mps 569 mmHg 97%
    07:00 -8°C° 0 mm 1 mps 569 mmHg 97%
    08:00 -6°C° 0 mm 1 mps 570 mmHg 97%
    09:00 -3°C° 0 mm 1 mps 571 mmHg 96%
    10:00 -1°C° 0 mm 1 mps 572 mmHg 95%
    11:00 0°C° 0 mm 1 mps 572 mmHg 95%
    12:00 0°C° 0 mm 1 mps 572 mmHg 95%
    13:00 -1°C° 0 mm 2 mps 572 mmHg 95%
    14:00 -1°C° 0 mm 2 mps 572 mmHg 95%
    15:00 +1°C° 0 mm 1 mps 572 mmHg 96%
    16:00 0°C° 0 mm 1 mps 572 mmHg 96%
    17:00 -4°C° 0 mm 2 mps 571 mmHg 96%
    18:00 -6°C° 0 mm 2 mps 570 mmHg 95%
    19:00 -7°C° 0 mm 2 mps 569 mmHg 95%
    20:00 -8°C° 0 mm 2 mps 569 mmHg 91%
    21:00 -8°C° 0 mm 2 mps 569 mmHg 88%
    22:00 -9°C° 0 mm 2 mps 569 mmHg 84%
    23:00 -9°C° 0 mm 2 mps 568 mmHg 83%

    Tomorrow, 23 February, Thursday

    Time Temperature Precipitation Wind Pressure Humidity
    00:00 -9°C° 0 mm 2 mps 568 mmHg 82%
    01:00 -9°C° 0 mm 2 mps 568 mmHg 81%
    02:00 -9°C° 0 mm 2 mps 568 mmHg 81%
    03:00 -9°C° 0 mm 2 mps 568 mmHg 81%
    04:00 -9°C° 0 mm 2 mps 567 mmHg 81%
    05:00 -9°C° 0 mm 2 mps 567 mmHg 80%
    06:00 -9°C° 0 mm 2 mps 567 mmHg 79%
    07:00 -9°C° 0 mm 2 mps 567 mmHg 78%
    08:00 -7°C° 0 mm 2 mps 568 mmHg 81%
    09:00 -5°C° 0 mm 2 mps 569 mmHg 83%
    10:00 -2°C° 0 mm 2 mps 570 mmHg 86%
    11:00 -1°C° 0 mm 2 mps 570 mmHg 87%
    12:00 -1°C° 0 mm 2 mps 569 mmHg 88%
    13:00 +1°C° 0 mm 2 mps 569 mmHg 89%
    14:00 +1°C° 0 mm 2 mps 569 mmHg 90%
    15:00 -1°C° 0 mm 2 mps 568 mmHg 92%
    16:00 -1°C° 0 mm 2 mps 568 mmHg 93%
    17:00 -3°C° 0 mm 2 mps 567 mmHg 94%
    18:00 -4°C° 0 mm 2 mps 567 mmHg 95%
    19:00 -5°C° 0 mm 2 mps 566 mmHg 96%
    20:00 -7°C° 0 mm 3 mps 566 mmHg 95%
    21:00 -7°C° 0 mm 3 mps 566 mmHg 94%
    22:00 -8°C° 0 mm 3 mps 565 mmHg 94%
    23:00 -7°C° 0.1 mm 2 mps 565 mmHg 93%

    Day after tomorrow, 24 February, Friday

    Time Temperature Precipitation Wind Pressure Humidity
    00:00 -7°C° 0.1 mm 2 mps 565 mmHg 93%
    01:00 -7°C° 0.1 mm 2 mps 565 mmHg 93%
    02:00 -7°C° 0.5 mm 2 mps 565 mmHg 94%
    03:00 -7°C° 0.5 mm 2 mps 565 mmHg 94%
    04:00 -6°C° 0.5 mm 2 mps 565 mmHg 95%
    05:00 -6°C° 1 mm 2 mps 565 mmHg 95%
    06:00 -7°C° 1 mm 2 mps 565 mmHg 96%
    07:00 -6°C° 1 mm 1 mps 566 mmHg 96%
    08:00 -7°C° 0.8 mm 2 mps 566 mmHg 96%
    09:00 -7°C° 0.8 mm 2 mps 566 mmHg 95%
    10:00 -7°C° 0.8 mm 2 mps 566 mmHg 95%
    11:00 -7°C° 0.4 mm 2 mps 566 mmHg 94%
    12:00 -7°C° 0.4 mm 2 mps 566 mmHg 93%
    13:00 -7°C° 0.4 mm 2 mps 566 mmHg 93%
    14:00 -7°C° 0.2 mm 2 mps 566 mmHg 93%
    15:00 -7°C° 0.2 mm 2 mps 566 mmHg 93%
    16:00 -7°C° 0.2 mm 2 mps 566 mmHg 93%
    17:00 -8°C° 0.2 mm 2 mps 566 mmHg 94%
    18:00 -9°C° 0.2 mm 2 mps 567 mmHg 95%
    19:00 -10°C° 0.2 mm 2 mps 567 mmHg 96%
    20:00 -10°C° 0.2 mm 2 mps 567 mmHg 96%
    21:00 -12°C° 0.2 mm 2 mps 568 mmHg 96%
    22:00 -12°C° 0.2 mm 2 mps 568 mmHg 96%
    23:00 -13°C° 0.1 mm 2 mps 568 mmHg 96%

    25 February, Saturday

    Time Temperature Precipitation Wind Pressure Humidity
    00:00 -14°C° 0.1 mm 2 mps 568 mmHg 96%
    01:00 -14°C° 0.1 mm 2 mps 568 mmHg 97%
    02:00 -13°C° 0 mm 1 mps 568 mmHg 97%
    03:00 -14°C° 0 mm 1 mps 567 mmHg 97%
    04:00 -15°C° 0 mm 1 mps 567 mmHg 97%
    05:00 -15°C° 0 mm 1 mps 567 mmHg 96%
    06:00 -15°C° 0 mm 1 mps 567 mmHg 96%
    07:00 -16°C° 0 mm 1 mps 567 mmHg 95%
    08:00 -13°C° 0 mm 1 mps 569 mmHg 92%
    09:00 -10°C° 0 mm 1 mps 571 mmHg 88%
    10:00 -7°C° 0 mm 1 mps 573 mmHg 85%
    11:00 -4°C° 0 mm 1 mps 573 mmHg 85%
    12:00 -4°C° 0 mm 0 mps 574 mmHg 85%
    13:00 -2°C° 0 mm 0 mps 574 mmHg 85%
    14:00 -2°C° 0 mm 0 mps 574 mmHg 87%
    15:00 -2°C° 0 mm 0 mps 574 mmHg 88%
    16:00 -2°C° 0 mm 0 mps 574 mmHg 90%
    17:00 -5°C° 0 mm 0 mps 572 mmHg 91%
    18:00 -8°C° 0 mm 1 mps 571 mmHg 91%
    19:00 -10°C° 0 mm 1 mps 569 mmHg 92%
    20:00 -10°C° 0 mm 1 mps 569 mmHg 89%
    21:00 -10°C° 0 mm 1 mps 570 mmHg 85%
    22:00 -10°C° 0 mm 1 mps 570 mmHg 82%
    23:00 -10°C° 0 mm 1 mps 570 mmHg 81%

    26 February, Sunday

    Time Temperature Precipitation Wind Pressure Humidity
    00:00 -9°C° 0 mm 1 mps 570 mmHg 80%
    01:00 -9°C° 0 mm 1 mps 570 mmHg 79%
    02:00 -9°C° 0 mm 1 mps 570 mmHg 79%
    03:00 -9°C° 0 mm 1 mps 570 mmHg 78%
    04:00 -9°C° 0 mm 1 mps 570 mmHg 78%
    05:00 -8°C° 0 mm 1 mps 570 mmHg 77%
    06:00 -8°C° 0 mm 1 mps 571 mmHg 76%
    07:00 -7°C° 0 mm 1 mps 571 mmHg 75%
    08:00 -4°C° 0 mm 1 mps 572 mmHg 78%
    09:00 -2°C° 0 mm 1 mps 574 mmHg 82%
    10:00 0°C° 0 mm 1 mps 575 mmHg 86%
    11:00 +1°C° 0 mm 1 mps 575 mmHg 86%
    12:00 +1°C° 0 mm 1 mps 575 mmHg 86%
    13:00 +2°C° 0 mm 1 mps 575 mmHg 86%
    14:00 +1°C° 0 mm 0 mps 575 mmHg 88%
    15:00 0°C° 0 mm 0 mps 575 mmHg 90%
    16:00 0°C° 0 mm 0 mps 574 mmHg 92%
    17:00 -3°C° 0 mm 0 mps 573 mmHg 93%
    18:00 -4°C° 0 mm 1 mps 571 mmHg 94%
    19:00 -8°C° 0 mm 1 mps 570 mmHg 95%
    20:00 -8°C° 0 mm 1 mps 570 mmHg 94%
    21:00 -7°C° 0 mm 1 mps 571 mmHg 93%
    22:00 -7°C° 0 mm 2 mps 571 mmHg 91%
    23:00 -7°C° 0 mm 2 mps 571 mmHg 91%

    27 February, Monday

    Time Temperature Precipitation Wind Pressure Humidity
    00:00 -7°C° 0 mm 2 mps 571 mmHg 92%
    01:00 -7°C° 0 mm 2 mps 571 mmHg 92%
    02:00 -7°C° 0 mm 2 mps 571 mmHg 91%
    03:00 -8°C° 0 mm 2 mps 571 mmHg 91%
    04:00 -8°C° 0 mm 2 mps 571 mmHg 90%
    05:00 -8°C° 0 mm 2 mps 570 mmHg 89%
    06:00 -8°C° 0 mm 2 mps 570 mmHg 88%
    07:00 -8°C° 0 mm 2 mps 570 mmHg 87%
    08:00 -6°C° 0 mm 2 mps 571 mmHg 87%
    09:00 -4°C° 0 mm 2 mps 572 mmHg 86%
    10:00 -2°C° 0 mm 2 mps 573 mmHg 86%
    11:00 -1°C° 0 mm 2 mps 573 mmHg 85%
    12:00 +1°C° 0 mm 2 mps 573 mmHg 85%
    13:00 +2°C° 0 mm 2 mps 573 mmHg 85%
    14:00 +1°C° 0 mm 2 mps 573 mmHg 87%
    15:00 +1°C° 0 mm 2 mps 572 mmHg 89%
    16:00 -1°C° 0 mm 2 mps 572 mmHg 90%
    17:00 -2°C° 0 mm 2 mps 571 mmHg 92%
    18:00 -4°C° 0 mm 2 mps 570 mmHg 93%
    19:00 -6°C° 0 mm 2 mps 570 mmHg 94%
    20:00 -6°C° 0 mm 2 mps 569 mmHg 93%
    21:00 -6°C° 0 mm 2 mps 569 mmHg 92%
    22:00 -7°C° 0 mm 2 mps 569 mmHg 91%
    23:00 -7°C° 0 mm 2 mps 569 mmHg 90%
    Show more